Time,TemperatureF,DewpointF,PressureIn,WindDirection,WindDirectionDegrees,WindSpeedMPH,WindSpeedGustMPH,Humidity,HourlyPrecipIn,Conditions,Clouds,dailyrainin,SolarRadiationWatts/m^2,SoftwareType,DateUTC
2013-10-13 00:03:00,58.1,35.8,29.98,SSW,211,0.0,1.0,43,0.00,,,0.00,0.0,meteohub,2013-10-13 07:03:00,
2013-10-13 00:08:00,57.9,35.6,29.99,SSW,211,0.0,1.0,43,0.00,,,0.00,0.0,meteohub,2013-10-13 07:08:00,
2013-10-13 00:13:00,57.7,35.4,29.99,SSW,211,1.0,1.0,43,0.00,,,0.00,0.0,meteohub,2013-10-13 07:13:00,
2013-10-13 00:18:00,57.7,35.4,29.99,SSW,211,0.0,1.0,43,0.00,,,0.00,0.0,meteohub,2013-10-13 07:18:00,
2013-10-13 00:23:00,57.6,35.2,29.99,SSW,211,0.0,1.0,43,0.00,,,0.00,0.0,meteohub,2013-10-13 07:23:00,
2013-10-13 00:28:00,57.4,35.6,29.99,SSW,211,0.0,1.0,44,0.00,,,0.00,0.0,meteohub,2013-10-13 07:28:00,
2013-10-13 00:33:00,57.0,35.2,29.99,SSW,211,0.0,1.0,44,0.00,,,0.00,0.0,meteohub,2013-10-13 07:33:00,
2013-10-13 00:38:00,56.8,35.8,29.99,SSW,211,0.0,0.0,45,0.00,,,0.00,0.0,meteohub,2013-10-13 07:38:00,
2013-10-13 00:43:00,56.8,35.8,29.99,SSW,211,0.0,0.0,45,0.00,,,0.00,0.0,meteohub,2013-10-13 07:43:00,
2013-10-13 00:48:00,56.8,35.8,29.99,SSW,211,0.0,0.0,45,0.00,,,0.00,0.0,meteohub,2013-10-13 07:48:00,
2013-10-13 00:53:00,56.7,35.6,29.99,SSW,211,1.0,0.0,45,0.00,,,0.00,0.0,meteohub,2013-10-13 07:53:00,
2013-10-13 00:58:00,56.7,36.1,29.99,SSW,211,0.0,1.0,46,0.00,,,0.00,0.0,meteohub,2013-10-13 07:58:00,
2013-10-13 01:03:00,56.7,35.6,29.99,SSW,211,0.0,2.0,45,0.00,,,0.00,0.0,meteohub,2013-10-13 08:03:00,
2013-10-13 01:08:00,56.8,36.3,29.99,SSW,211,0.0,2.0,46,0.00,,,0.00,0.0,meteohub,2013-10-13 08:08:00,
2013-10-13 01:13:00,56.7,35.6,29.99,SSW,211,0.0,1.0,45,0.00,,,0.00,0.0,meteohub,2013-10-13 08:13:00,
2013-10-13 01:19:00,56.5,36.0,29.99,SSW,211,0.0,2.0,46,0.00,,,0.00,0.0,meteohub,2013-10-13 08:19:00,
2013-10-13 01:24:00,56.3,35.8,29.99,SSW,211,0.0,2.0,46,0.00,,,0.00,0.0,meteohub,2013-10-13 08:24:00,
2013-10-13 01:29:00,56.1,35.6,29.99,SSW,211,1.0,2.0,46,0.00,,,0.00,0.0,meteohub,2013-10-13 08:29:00,
2013-10-13 01:34:00,56.7,36.1,29.99,SSW,211,0.0,1.0,46,0.00,,,0.00,0.0,meteohub,2013-10-13 08:34:00,
2013-10-13 01:39:00,56.8,35.8,29.99,SSW,211,0.0,1.0,45,0.00,,,0.00,0.0,meteohub,2013-10-13 08:39:00,
2013-10-13 01:44:00,57.0,36.0,29.99,SSW,211,0.0,1.0,45,0.00,,,0.00,0.0,meteohub,2013-10-13 08:44:00,
2013-10-13 01:49:00,57.0,36.0,29.99,SSW,211,0.0,1.0,45,0.00,,,0.00,0.0,meteohub,2013-10-13 08:49:00,
2013-10-13 01:54:00,56.8,35.8,29.99,SSW,211,0.0,2.0,45,0.00,,,0.00,0.0,meteohub,2013-10-13 08:54:00,
2013-10-13 01:59:00,56.8,36.3,29.98,SSW,211,0.0,2.0,46,0.00,,,0.00,0.0,meteohub,2013-10-13 08:59:00,
2013-10-13 02:04:00,56.7,36.1,29.98,SSW,211,0.0,2.0,46,0.00,,,0.00,0.0,meteohub,2013-10-13 09:04:00,
2013-10-13 02:09:00,56.3,35.8,29.98,SSW,211,1.0,1.0,46,0.00,,,0.00,0.0,meteohub,2013-10-13 09:09:00,
2013-10-13 02:14:00,56.1,35.6,29.98,SSW,211,1.0,1.0,46,0.00,,,0.00,0.0,meteohub,2013-10-13 09:14:00,
2013-10-13 02:19:00,55.9,35.4,29.98,SSW,211,0.0,1.0,46,0.00,,,0.00,0.0,meteohub,2013-10-13 09:19:00,
2013-10-13 02:24:00,55.8,35.8,29.98,SSW,211,0.0,2.0,47,0.00,,,0.00,0.0,meteohub,2013-10-13 09:24:00,
2013-10-13 02:29:00,55.6,35.6,29.98,SSW,211,1.0,2.0,47,0.00,,,0.00,0.0,meteohub,2013-10-13 09:29:00,
2013-10-13 02:34:00,55.2,36.0,29.97,SSW,211,0.0,2.0,48,0.00,,,0.00,0.0,meteohub,2013-10-13 09:34:00,
2013-10-13 02:39:00,55.0,35.8,29.97,SSW,211,0.0,1.0,48,0.00,,,0.00,0.0,meteohub,2013-10-13 09:39:00,
2013-10-13 02:44:00,54.9,36.1,29.97,SSW,211,1.0,1.0,49,0.00,,,0.00,0.0,meteohub,2013-10-13 09:44:00,
2013-10-13 02:49:00,54.9,36.1,29.97,SSW,211,0.0,1.0,49,0.00,,,0.00,0.0,meteohub,2013-10-13 09:49:00,
2013-10-13 02:54:00,54.9,36.1,29.97,SSW,211,1.0,2.0,49,0.00,,,0.00,0.0,meteohub,2013-10-13 09:54:00,
2013-10-13 02:59:00,54.9,36.1,29.97,SSW,211,0.0,2.0,49,0.00,,,0.00,0.0,meteohub,2013-10-13 09:59:00,
2013-10-13 03:04:00,54.9,36.1,29.97,SSW,211,0.0,2.0,49,0.00,,,0.00,0.0,meteohub,2013-10-13 10:04:00,
2013-10-13 03:09:00,54.7,36.0,29.97,SSW,211,1.0,2.0,49,0.00,,,0.00,0.0,meteohub,2013-10-13 10:09:00,
2013-10-13 03:14:00,54.3,35.6,29.97,SSW,211,0.0,2.0,49,0.00,,,0.00,0.0,meteohub,2013-10-13 10:14:00,
2013-10-13 03:19:00,54.0,35.2,29.97,SSW,211,0.0,1.0,49,0.00,,,0.00,0.0,meteohub,2013-10-13 10:19:00,
2013-10-13 03:24:00,53.8,35.6,29.97,SSW,211,0.0,1.0,50,0.00,,,0.00,0.0,meteohub,2013-10-13 10:24:00,
2013-10-13 03:30:00,53.6,36.0,29.97,SSW,211,0.0,1.0,51,0.00,,,0.00,0.0,meteohub,2013-10-13 10:30:00,
2013-10-13 03:35:00,53.4,35.8,29.97,SSW,211,0.0,1.0,51,0.00,,,0.00,0.0,meteohub,2013-10-13 10:35:00,
2013-10-13 03:40:00,53.2,36.1,29.97,SSW,211,0.0,1.0,52,0.00,,,0.00,0.0,meteohub,2013-10-13 10:40:00,
2013-10-13 03:45:00,53.2,36.1,29.98,SSW,211,0.0,1.0,52,0.00,,,0.00,0.0,meteohub,2013-10-13 10:45:00,
2013-10-13 03:50:00,53.2,36.1,29.98,SSW,211,1.0,1.0,52,0.00,,,0.00,0.0,meteohub,2013-10-13 10:50:00,
2013-10-13 03:55:00,53.1,36.0,29.98,SSW,211,0.0,1.0,52,0.00,,,0.00,0.0,meteohub,2013-10-13 10:55:00,
2013-10-13 04:00:00,53.1,36.0,29.98,SSW,211,0.0,1.0,52,0.00,,,0.00,0.0,meteohub,2013-10-13 11:00:00,
2013-10-13 04:05:00,52.9,36.1,29.98,SSW,211,1.0,1.0,53,0.00,,,0.00,0.0,meteohub,2013-10-13 11:05:00,
2013-10-13 04:10:00,52.7,36.0,29.98,SSW,211,0.0,1.0,53,0.00,,,0.00,0.0,meteohub,2013-10-13 11:10:00,
2013-10-13 04:15:00,52.7,36.0,29.98,SSW,211,0.0,1.0,53,0.00,,,0.00,0.0,meteohub,2013-10-13 11:15:00,
2013-10-13 04:20:00,52.9,36.7,29.98,SSW,211,0.0,1.0,54,0.00,,,0.00,0.0,meteohub,2013-10-13 11:20:00,
2013-10-13 04:25:00,52.9,36.7,29.98,SSW,211,0.0,1.0,54,0.00,,,0.00,0.0,meteohub,2013-10-13 11:25:00,
2013-10-13 04:30:00,52.9,36.7,29.98,SSW,211,0.0,1.0,54,0.00,,,0.00,0.0,meteohub,2013-10-13 11:30:00,
2013-10-13 04:35:00,52.9,36.7,29.98,SSW,211,0.0,1.0,54,0.00,,,0.00,0.0,meteohub,2013-10-13 11:35:00,
2013-10-13 04:40:00,53.1,36.9,29.98,SSW,211,1.0,2.0,54,0.00,,,0.00,0.0,meteohub,2013-10-13 11:40:00,
2013-10-13 04:45:00,53.2,36.5,29.98,SSW,211,1.0,2.0,53,0.00,,,0.00,0.0,meteohub,2013-10-13 11:45:00,
2013-10-13 04:50:00,53.4,36.7,29.98,SSW,211,0.0,2.0,53,0.00,,,0.00,0.0,meteohub,2013-10-13 11:50:00,
2013-10-13 04:55:00,53.4,36.7,29.98,SSW,211,0.0,1.0,53,0.00,,,0.00,0.0,meteohub,2013-10-13 11:55:00,
2013-10-13 05:00:00,53.2,36.5,29.98,SSW,211,0.0,1.0,53,0.00,,,0.00,0.0,meteohub,2013-10-13 12:00:00,
2013-10-13 05:05:00,53.1,36.9,29.98,SSW,211,2.0,2.0,54,0.00,,,0.00,0.0,meteohub,2013-10-13 12:05:00,
2013-10-13 05:10:00,52.9,36.7,29.98,SSW,211,0.0,2.0,54,0.00,,,0.00,0.0,meteohub,2013-10-13 12:10:00,
2013-10-13 05:15:00,52.7,36.5,29.98,SSW,211,0.0,2.0,54,0.00,,,0.00,0.0,meteohub,2013-10-13 12:15:00,
2013-10-13 05:20:00,52.5,36.9,29.99,SSW,211,0.0,2.0,55,0.00,,,0.00,0.0,meteohub,2013-10-13 12:20:00,
2013-10-13 05:26:00,52.5,36.9,29.99,SSW,211,0.0,0.0,55,0.00,,,0.00,0.0,meteohub,2013-10-13 12:26:00,
2013-10-13 05:31:00,52.5,36.9,29.99,SSW,211,0.0,1.0,55,0.00,,,0.00,0.0,meteohub,2013-10-13 12:31:00,
2013-10-13 05:36:00,52.5,37.2,29.99,SSW,211,1.0,1.0,56,0.00,,,0.00,0.0,meteohub,2013-10-13 12:36:00,
2013-10-13 05:41:00,52.3,37.0,29.99,SSW,211,0.0,1.0,56,0.00,,,0.00,0.0,meteohub,2013-10-13 12:41:00,
2013-10-13 05:46:00,52.2,36.9,29.99,SSW,211,1.0,1.0,56,0.00,,,0.00,0.0,meteohub,2013-10-13 12:46:00,
2013-10-13 05:51:00,52.0,36.9,29.99,SSW,211,0.0,1.0,56,0.00,,,0.00,0.0,meteohub,2013-10-13 12:51:00,
2013-10-13 05:56:00,51.8,37.0,29.99,SSW,211,0.0,2.0,57,0.00,,,0.00,0.0,meteohub,2013-10-13 12:56:00,
2013-10-13 06:01:00,51.8,37.0,29.99,SSW,211,1.0,2.0,57,0.00,,,0.00,0.0,meteohub,2013-10-13 13:01:00,
2013-10-13 06:06:00,51.8,37.0,29.99,SSW,211,0.0,2.0,57,0.00,,,0.00,0.0,meteohub,2013-10-13 13:06:00,
2013-10-13 06:11:00,52.0,37.2,30.00,SSW,211,0.0,2.0,57,0.00,,,0.00,0.0,meteohub,2013-10-13 13:11:00,
2013-10-13 06:16:00,52.2,37.4,30.00,SSW,211,0.0,2.0,57,0.00,,,0.00,0.0,meteohub,2013-10-13 13:16:00,
2013-10-13 06:21:00,52.2,36.9,30.00,SSW,211,0.0,2.0,56,0.00,,,0.00,0.0,meteohub,2013-10-13 13:21:00,
2013-10-13 06:26:00,52.0,36.9,30.00,SSW,211,1.0,1.0,56,0.00,,,0.00,5.0,meteohub,2013-10-13 13:26:00,
2013-10-13 06:31:00,52.2,37.4,30.00,SSW,211,0.0,2.0,57,0.00,,,0.00,9.0,meteohub,2013-10-13 13:31:00,
2013-10-13 06:36:00,52.0,37.2,30.01,SSW,211,0.0,2.0,57,0.00,,,0.00,12.0,meteohub,2013-10-13 13:36:00,
2013-10-13 06:41:00,52.0,37.2,30.01,SSW,211,0.0,2.0,57,0.00,,,0.00,14.0,meteohub,2013-10-13 13:41:00,
2013-10-13 06:46:00,52.0,37.2,30.01,SSW,211,1.0,1.0,57,0.00,,,0.00,18.0,meteohub,2013-10-13 13:46:00,
2013-10-13 06:51:00,51.8,37.6,30.01,SSW,211,0.0,2.0,58,0.00,,,0.00,23.0,meteohub,2013-10-13 13:51:00,
2013-10-13 06:56:00,52.0,37.6,30.01,SSW,211,1.0,2.0,58,0.00,,,0.00,42.0,meteohub,2013-10-13 13:56:00,
2013-10-13 07:01:00,52.5,37.8,30.01,SSW,211,0.0,2.0,57,0.00,,,0.00,54.0,meteohub,2013-10-13 14:01:00,
2013-10-13 07:06:00,53.8,38.5,30.02,SSW,211,0.0,2.0,56,0.00,,,0.00,72.0,meteohub,2013-10-13 14:06:00,
2013-10-13 07:11:00,55.2,38.8,30.02,SSW,211,0.0,2.0,54,0.00,,,0.00,86.0,meteohub,2013-10-13 14:11:00,
2013-10-13 07:16:00,56.8,40.5,30.02,SSW,211,0.0,2.0,54,0.00,,,0.00,105.0,meteohub,2013-10-13 14:16:00,
2013-10-13 07:21:00,58.3,40.8,30.02,SSW,211,0.0,2.0,52,0.00,,,0.00,128.0,meteohub,2013-10-13 14:21:00,
2013-10-13 07:26:00,59.5,42.4,30.03,SSW,211,0.0,1.0,53,0.00,,,0.00,149.0,meteohub,2013-10-13 14:26:00,
2013-10-13 07:31:00,61.3,41.5,30.03,SSW,211,0.0,1.0,48,0.00,,,0.00,171.0,meteohub,2013-10-13 14:31:00,
2013-10-13 07:36:00,63.7,43.7,30.03,SSW,211,0.0,1.0,48,0.00,,,0.00,193.0,meteohub,2013-10-13 14:36:00,
2013-10-13 07:42:00,65.1,43.9,30.03,SSW,211,0.0,0.0,46,0.00,,,0.00,211.0,meteohub,2013-10-13 14:42:00,
2013-10-13 07:47:00,66.9,43.2,30.03,SSW,211,0.0,1.0,42,0.00,,,0.00,227.0,meteohub,2013-10-13 14:47:00,
2013-10-13 07:52:00,68.5,43.9,30.03,SSW,211,0.0,2.0,41,0.00,,,0.00,237.0,meteohub,2013-10-13 14:52:00,
2013-10-13 07:57:00,69.4,44.1,30.04,SSW,211,1.0,2.0,40,0.00,,,0.00,255.0,meteohub,2013-10-13 14:57:00,
2013-10-13 08:02:00,70.3,43.5,30.04,SSW,211,0.0,2.0,38,0.00,,,0.00,276.0,meteohub,2013-10-13 15:02:00,
2013-10-13 08:07:00,70.9,43.3,30.04,SSW,211,1.0,2.0,37,0.00,,,0.00,297.0,meteohub,2013-10-13 15:07:00,
2013-10-13 08:12:00,71.2,43.0,30.04,SSW,211,0.0,2.0,36,0.00,,,0.00,313.0,meteohub,2013-10-13 15:12:00,
2013-10-13 08:17:00,71.6,43.2,30.04,SSW,211,1.0,2.0,36,0.00,,,0.00,332.0,meteohub,2013-10-13 15:17:00,
2013-10-13 08:22:00,72.3,42.4,30.04,SSW,211,0.0,2.0,34,0.00,,,0.00,348.0,meteohub,2013-10-13 15:22:00,
2013-10-13 08:27:00,72.7,42.6,30.05,SSW,211,1.0,2.0,34,0.00,,,0.00,364.0,meteohub,2013-10-13 15:27:00,
2013-10-13 08:32:00,72.5,42.6,30.05,SSW,211,0.0,2.0,34,0.00,,,0.00,381.0,meteohub,2013-10-13 15:32:00,
2013-10-13 08:37:00,72.9,42.8,30.05,SW,227,1.0,3.0,34,0.00,,,0.00,399.0,meteohub,2013-10-13 15:37:00,
2013-10-13 08:42:00,73.0,43.0,30.05,SW,228,2.0,3.0,34,0.00,,,0.00,413.0,meteohub,2013-10-13 15:42:00,
2013-10-13 08:47:00,73.2,43.2,30.05,SW,228,1.0,3.0,34,0.00,,,0.00,427.0,meteohub,2013-10-13 15:47:00,
2013-10-13 08:52:00,73.6,43.5,30.05,SSW,207,1.0,3.0,34,0.00,,,0.00,445.0,meteohub,2013-10-13 15:52:00,
2013-10-13 08:57:00,73.8,42.8,30.05,West,264,1.0,4.0,33,0.00,,,0.00,464.0,meteohub,2013-10-13 15:57:00,
2013-10-13 09:02:00,73.9,43.0,30.05,WSW,237,2.0,5.0,33,0.00,,,0.00,476.0,meteohub,2013-10-13 16:02:00,
2013-10-13 09:07:00,74.5,42.6,30.04,West,260,2.0,5.0,32,0.00,,,0.00,492.0,meteohub,2013-10-13 16:07:00,
2013-10-13 09:12:00,75.0,43.2,30.04,WSW,248,3.0,5.0,32,0.00,,,0.00,504.0,meteohub,2013-10-13 16:12:00,
2013-10-13 09:17:00,75.4,43.5,30.04,West,265,1.0,5.0,32,0.00,,,0.00,522.0,meteohub,2013-10-13 16:17:00,
2013-10-13 09:22:00,75.6,43.7,30.04,SW,224,3.0,4.0,32,0.00,,,0.00,538.0,meteohub,2013-10-13 16:22:00,
2013-10-13 09:27:00,76.1,43.3,30.04,West,259,2.0,5.0,31,0.00,,,0.00,548.0,meteohub,2013-10-13 16:27:00,
2013-10-13 09:32:00,76.3,43.3,30.04,SW,221,3.0,5.0,31,0.00,,,0.00,564.0,meteohub,2013-10-13 16:32:00,
2013-10-13 09:37:00,76.5,43.5,30.04,WNW,300,1.0,5.0,31,0.00,,,0.00,578.0,meteohub,2013-10-13 16:37:00,
2013-10-13 09:42:00,76.6,43.7,30.04,SW,225,1.0,5.0,31,0.00,,,0.00,591.0,meteohub,2013-10-13 16:42:00,
2013-10-13 09:47:00,76.8,43.9,30.04,West,272,2.0,5.0,31,0.00,,,0.00,605.0,meteohub,2013-10-13 16:47:00,
2013-10-13 09:52:00,77.4,43.5,30.04,WSW,245,3.0,4.0,30,0.00,,,0.00,615.0,meteohub,2013-10-13 16:52:00,
2013-10-13 09:57:00,77.7,44.6,30.04,WNW,290,3.0,5.0,31,0.00,,,0.00,629.0,meteohub,2013-10-13 16:57:00,
2013-10-13 10:02:00,78.1,44.1,30.04,WSW,246,2.0,5.0,30,0.00,,,0.00,640.0,meteohub,2013-10-13 17:02:00,
2013-10-13 10:07:00,77.7,43.9,30.04,SW,218,1.0,6.0,30,0.00,,,0.00,652.0,meteohub,2013-10-13 17:07:00,
2013-10-13 10:12:00,77.9,44.8,30.04,WNW,290,4.0,6.0,31,0.00,,,0.00,664.0,meteohub,2013-10-13 17:12:00,
2013-10-13 10:17:00,77.9,44.8,30.04,NW,319,2.0,6.0,31,0.00,,,0.00,675.0,meteohub,2013-10-13 17:17:00,
2013-10-13 10:22:00,77.9,44.8,30.04,NW,305,1.0,6.0,31,0.00,,,0.00,682.0,meteohub,2013-10-13 17:22:00,
2013-10-13 10:27:00,78.4,45.3,30.04,WNW,294,4.0,6.0,31,0.00,,,0.00,693.0,meteohub,2013-10-13 17:27:00,
2013-10-13 10:32:00,78.6,44.6,30.04,NW,321,1.0,6.0,30,0.00,,,0.00,703.0,meteohub,2013-10-13 17:32:00,
2013-10-13 10:37:00,79.0,45.0,30.04,NW,313,3.0,7.0,30,0.00,,,0.00,712.0,meteohub,2013-10-13 17:37:00,
2013-10-13 10:42:00,78.8,44.8,30.04,NW,324,4.0,7.0,30,0.00,,,0.00,717.0,meteohub,2013-10-13 17:42:00,
2013-10-13 10:47:00,78.8,44.8,30.03,NW,317,4.0,7.0,30,0.00,,,0.00,726.0,meteohub,2013-10-13 17:47:00,
2013-10-13 10:52:00,79.3,45.1,30.03,NW,319,6.0,8.0,30,0.00,,,0.00,731.0,meteohub,2013-10-13 17:52:00,
2013-10-13 10:57:00,79.5,45.3,30.03,NW,325,3.0,9.0,30,0.00,,,0.00,740.0,meteohub,2013-10-13 17:57:00,
2013-10-13 11:02:00,79.9,44.8,30.03,SSW,203,4.0,9.0,29,0.00,,,0.00,744.0,meteohub,2013-10-13 18:02:00,
2013-10-13 11:07:00,79.9,44.8,30.03,SW,226,3.0,9.0,29,0.00,,,0.00,754.0,meteohub,2013-10-13 18:07:00,
2013-10-13 11:12:00,80.1,44.1,30.02,West,262,6.0,8.0,28,0.00,,,0.00,761.0,meteohub,2013-10-13 18:12:00,
2013-10-13 11:17:00,80.1,44.1,30.02,SW,223,1.0,8.0,28,0.00,,,0.00,765.0,meteohub,2013-10-13 18:17:00,
2013-10-13 11:22:00,79.9,44.8,30.02,SW,230,2.0,8.0,29,0.00,,,0.00,768.0,meteohub,2013-10-13 18:22:00,
2013-10-13 11:27:00,80.2,45.1,30.02,West,270,4.0,7.0,29,0.00,,,0.00,775.0,meteohub,2013-10-13 18:27:00,
2013-10-13 11:32:00,80.6,43.5,30.01,WSW,242,4.0,7.0,27,0.00,,,0.00,784.0,meteohub,2013-10-13 18:32:00,
2013-10-13 11:37:00,81.7,42.4,30.01,SW,215,1.0,8.0,25,0.00,,,0.00,780.0,meteohub,2013-10-13 18:37:00,
2013-10-13 11:42:00,82.2,43.0,30.01,West,267,8.0,8.0,25,0.00,,,0.00,782.0,meteohub,2013-10-13 18:42:00,
2013-10-13 11:47:00,82.2,43.0,30.01,SW,218,3.0,9.0,25,0.00,,,0.00,788.0,meteohub,2013-10-13 18:47:00,
2013-10-13 11:52:00,82.8,42.3,30.00,West,262,4.0,9.0,24,0.00,,,0.00,789.0,meteohub,2013-10-13 18:52:00,
2013-10-13 11:57:00,82.9,41.4,30.00,SW,229,5.0,9.0,23,0.00,,,0.00,795.0,meteohub,2013-10-13 18:57:00,
2013-10-13 12:02:00,82.9,42.4,30.00,SSW,211,3.0,10.0,24,0.00,,,0.00,793.0,meteohub,2013-10-13 19:02:00,
2013-10-13 12:07:00,83.1,41.5,29.99,NW,317,4.0,10.0,23,0.00,,,0.00,789.0,meteohub,2013-10-13 19:07:00,
2013-10-13 12:12:00,83.1,41.5,29.99,WNW,294,2.0,10.0,23,0.00,,,0.00,789.0,meteohub,2013-10-13 19:12:00,
2013-10-13 12:17:00,83.7,41.9,29.99,WSW,252,2.0,8.0,23,0.00,,,0.00,793.0,meteohub,2013-10-13 19:17:00,
2013-10-13 12:22:00,84.0,42.3,29.99,SW,215,5.0,11.0,23,0.00,,,0.00,793.0,meteohub,2013-10-13 19:22:00,
2013-10-13 12:27:00,84.0,41.0,29.98,West,265,6.0,11.0,22,0.00,,,0.00,793.0,meteohub,2013-10-13 19:27:00,
2013-10-13 12:32:00,84.6,40.3,29.98,WSW,250,3.0,11.0,21,0.00,,,0.00,791.0,meteohub,2013-10-13 19:32:00,
2013-10-13 12:37:00,85.3,41.0,29.98,West,265,3.0,9.0,21,0.00,,,0.00,784.0,meteohub,2013-10-13 19:37:00,
2013-10-13 12:42:00,85.3,39.7,29.97,SW,235,4.0,8.0,20,0.00,,,0.00,784.0,meteohub,2013-10-13 19:42:00,
2013-10-13 12:47:00,84.9,40.6,29.97,WSW,238,4.0,7.0,21,0.00,,,0.00,784.0,meteohub,2013-10-13 19:47:00,
2013-10-13 12:52:00,85.3,39.7,29.97,West,260,5.0,7.0,20,0.00,,,0.00,777.0,meteohub,2013-10-13 19:52:00,
2013-10-13 12:57:00,85.1,39.6,29.96,SW,220,6.0,10.0,20,0.00,,,0.00,775.0,meteohub,2013-10-13 19:57:00,
2013-10-13 13:02:00,85.3,38.3,29.96,West,261,5.0,10.0,19,0.00,,,0.00,772.0,meteohub,2013-10-13 20:02:00,
2013-10-13 13:07:00,84.9,38.1,29.96,SW,227,2.0,7.0,19,0.00,,,0.00,768.0,meteohub,2013-10-13 20:07:00,
2013-10-13 13:12:00,86.0,37.6,29.96,SSW,207,6.0,7.0,18,0.00,,,0.00,763.0,meteohub,2013-10-13 20:12:00,
2013-10-13 13:17:00,86.2,37.8,29.95,SW,230,3.0,8.0,18,0.00,,,0.00,763.0,meteohub,2013-10-13 20:17:00,
2013-10-13 13:22:00,85.8,36.0,29.95,South,187,4.0,8.0,17,0.00,,,0.00,752.0,meteohub,2013-10-13 20:22:00,
2013-10-13 13:27:00,86.4,36.3,29.94,SW,215,7.0,11.0,17,0.00,,,0.00,749.0,meteohub,2013-10-13 20:27:00,
2013-10-13 13:32:00,86.4,36.3,29.94,WSW,248,7.0,11.0,17,0.00,,,0.00,744.0,meteohub,2013-10-13 20:32:00,
2013-10-13 13:37:00,86.2,36.3,29.94,SW,228,5.0,13.0,17,0.00,,,0.00,733.0,meteohub,2013-10-13 20:37:00,
2013-10-13 13:42:00,86.9,35.2,29.94,West,279,8.0,13.0,16,0.00,,,0.00,728.0,meteohub,2013-10-13 20:42:00,
2013-10-13 13:47:00,86.9,35.2,29.94,WSW,243,7.0,13.0,16,0.00,,,0.00,719.0,meteohub,2013-10-13 20:47:00,
2013-10-13 13:52:00,86.7,35.2,29.94,SW,224,3.0,12.0,16,0.00,,,0.00,708.0,meteohub,2013-10-13 20:52:00,
2013-10-13 13:57:00,87.6,36.0,29.94,WSW,243,6.0,13.0,16,0.00,,,0.00,698.0,meteohub,2013-10-13 20:57:00,
2013-10-13 14:02:00,88.2,34.7,29.93,SW,229,6.0,13.0,15,0.00,,,0.00,689.0,meteohub,2013-10-13 21:02:00,
2013-10-13 14:07:00,87.3,35.6,29.93,WNW,286,4.0,14.0,16,0.00,,,0.00,679.0,meteohub,2013-10-13 21:07:00,
2013-10-13 14:12:00,87.3,35.6,29.93,SW,232,7.0,14.0,16,0.00,,,0.00,668.0,meteohub,2013-10-13 21:12:00,
2013-10-13 14:17:00,87.4,35.8,29.93,WSW,252,9.0,14.0,16,0.00,,,0.00,659.0,meteohub,2013-10-13 21:17:00,
2013-10-13 14:22:00,87.4,37.2,29.93,SW,225,7.0,12.0,17,0.00,,,0.00,649.0,meteohub,2013-10-13 21:22:00,
2013-10-13 14:27:00,87.6,37.4,29.93,SW,231,6.0,12.0,17,0.00,,,0.00,631.0,meteohub,2013-10-13 21:27:00,
2013-10-13 14:32:00,87.3,37.2,29.93,WSW,248,9.0,12.0,17,0.00,,,0.00,622.0,meteohub,2013-10-13 21:32:00,
2013-10-13 14:37:00,87.1,38.5,29.93,SW,234,4.0,15.0,18,0.00,,,0.00,612.0,meteohub,2013-10-13 21:37:00,
2013-10-13 14:42:00,87.1,38.5,29.93,SW,232,12.0,15.0,18,0.00,,,0.00,594.0,meteohub,2013-10-13 21:42:00,
2013-10-13 14:47:00,87.1,38.5,29.93,SW,228,4.0,14.0,18,0.00,,,0.00,578.0,meteohub,2013-10-13 21:47:00,
2013-10-13 14:52:00,87.1,38.5,29.93,WSW,242,6.0,13.0,18,0.00,,,0.00,573.0,meteohub,2013-10-13 21:52:00,
2013-10-13 14:57:00,87.3,38.7,29.93,SW,215,5.0,13.0,18,0.00,,,0.00,561.0,meteohub,2013-10-13 21:57:00,
2013-10-13 15:02:00,87.4,38.7,29.93,WSW,255,6.0,11.0,18,0.00,,,0.00,545.0,meteohub,2013-10-13 22:02:00,
2013-10-13 15:07:00,87.6,37.4,29.93,West,275,3.0,11.0,17,0.00,,,0.00,533.0,meteohub,2013-10-13 22:07:00,
2013-10-13 15:12:00,87.6,37.4,29.93,SW,235,6.0,11.0,17,0.00,,,0.00,512.0,meteohub,2013-10-13 22:12:00,
2013-10-13 15:17:00,87.4,37.2,29.93,SW,234,5.0,14.0,17,0.00,,,0.00,504.0,meteohub,2013-10-13 22:17:00,
2013-10-13 15:22:00,87.4,37.2,29.93,SW,224,10.0,14.0,17,0.00,,,0.00,487.0,meteohub,2013-10-13 22:22:00,
2013-10-13 15:27:00,87.4,37.2,29.93,SW,231,5.0,14.0,17,0.00,,,0.00,471.0,meteohub,2013-10-13 22:27:00,
2013-10-13 15:32:00,87.8,37.6,29.93,WSW,246,6.0,13.0,17,0.00,,,0.00,457.0,meteohub,2013-10-13 22:32:00,
2013-10-13 15:37:00,87.6,37.4,29.92,WSW,242,6.0,13.0,17,0.00,,,0.00,445.0,meteohub,2013-10-13 22:37:00,
2013-10-13 15:42:00,87.4,35.8,29.93,SSE,153,5.0,12.0,16,0.00,,,0.00,427.0,meteohub,2013-10-13 22:42:00,
2013-10-13 15:47:00,86.9,38.3,29.93,SW,226,7.0,12.0,18,0.00,,,0.00,404.0,meteohub,2013-10-13 22:47:00,
2013-10-13 15:52:00,86.5,37.9,29.93,West,275,8.0,13.0,18,0.00,,,0.00,394.0,meteohub,2013-10-13 22:52:00,
2013-10-13 15:57:00,86.2,37.8,29.93,SW,229,8.0,15.0,18,0.00,,,0.00,65.0,meteohub,2013-10-13 22:57:00,
2013-10-13 16:02:00,86.0,37.6,29.93,SW,219,8.0,15.0,18,0.00,,,0.00,359.0,meteohub,2013-10-13 23:02:00,
2013-10-13 16:07:00,86.2,37.8,29.93,SW,215,6.0,15.0,18,0.00,,,0.00,346.0,meteohub,2013-10-13 23:07:00,
2013-10-13 16:12:00,86.2,37.8,29.93,SW,222,4.0,15.0,18,0.00,,,0.00,329.0,meteohub,2013-10-13 23:12:00,
2013-10-13 16:17:00,86.2,37.8,29.93,SW,223,7.0,15.0,18,0.00,,,0.00,315.0,meteohub,2013-10-13 23:17:00,
2013-10-13 16:22:00,86.0,37.6,29.93,West,261,7.0,15.0,18,0.00,,,0.00,295.0,meteohub,2013-10-13 23:22:00,
2013-10-13 16:27:00,85.8,37.4,29.93,WSW,254,5.0,12.0,18,0.00,,,0.00,278.0,meteohub,2013-10-13 23:27:00,
2013-10-13 16:32:00,86.0,36.1,29.93,WSW,248,4.0,12.0,17,0.00,,,0.00,258.0,meteohub,2013-10-13 23:32:00,
2013-10-13 16:37:00,85.6,35.8,29.93,WSW,256,5.0,12.0,17,0.00,,,0.00,234.0,meteohub,2013-10-13 23:37:00,
2013-10-13 16:42:00,85.3,35.6,29.93,West,261,9.0,16.0,17,0.00,,,0.00,213.0,meteohub,2013-10-13 23:42:00,
2013-10-13 16:47:00,84.9,35.2,29.93,WSW,258,7.0,16.0,17,0.00,,,0.00,188.0,meteohub,2013-10-13 23:47:00,
2013-10-13 16:52:00,84.9,36.7,29.93,WSW,252,9.0,16.0,18,0.00,,,0.00,169.0,meteohub,2013-10-13 23:52:00,
2013-10-13 16:57:00,84.7,36.5,29.93,South,182,6.0,16.0,18,0.00,,,0.00,146.0,meteohub,2013-10-13 23:57:00,
2013-10-13 17:02:00,84.6,36.3,29.93,NW,320,5.0,15.0,18,0.00,,,0.00,127.0,meteohub,2013-10-14 00:02:00,
2013-10-13 17:07:00,84.0,36.0,29.93,West,263,10.0,15.0,18,0.00,,,0.00,105.0,meteohub,2013-10-14 00:07:00,
2013-10-13 17:12:00,83.8,35.8,29.93,WNW,284,5.0,13.0,18,0.00,,,0.00,84.0,meteohub,2013-10-14 00:12:00,
2013-10-13 17:17:00,83.5,35.6,29.93,WSW,258,12.0,12.0,18,0.00,,,0.00,67.0,meteohub,2013-10-14 00:17:00,
2013-10-13 17:22:00,83.1,35.2,29.94,WSW,257,9.0,12.0,18,0.00,,,0.00,51.0,meteohub,2013-10-14 00:22:00,
2013-10-13 17:27:00,82.8,36.3,29.94,WSW,238,4.0,12.0,19,0.00,,,0.00,35.0,meteohub,2013-10-14 00:27:00,
2013-10-13 17:32:00,82.2,35.8,29.94,WSW,249,14.0,17.0,19,0.00,,,0.00,26.0,meteohub,2013-10-14 00:32:00,
2013-10-13 17:37:00,82.0,35.8,29.94,SW,235,6.0,17.0,19,0.00,,,0.00,16.0,meteohub,2013-10-14 00:37:00,
2013-10-13 17:42:00,81.5,35.2,29.94,West,268,5.0,20.0,19,0.00,,,0.00,12.0,meteohub,2013-10-14 00:42:00,
2013-10-13 17:47:00,81.1,36.3,29.94,West,273,3.0,20.0,20,0.00,,,0.00,9.0,meteohub,2013-10-14 00:47:00,
2013-10-13 17:52:00,80.8,34.7,29.94,West,263,5.0,14.0,19,0.00,,,0.00,5.0,meteohub,2013-10-14 00:52:00,
2013-10-13 17:57:00,80.4,35.6,29.95,West,268,9.0,16.0,20,0.00,,,0.00,0.0,meteohub,2013-10-14 00:57:00,
2013-10-13 18:02:00,80.2,35.6,29.95,West,260,5.0,16.0,20,0.00,,,0.00,0.0,meteohub,2013-10-14 01:02:00,
2013-10-13 18:07:00,79.9,35.2,29.95,WSW,251,8.0,17.0,20,0.00,,,0.00,0.0,meteohub,2013-10-14 01:07:00,
2013-10-13 18:12:00,79.9,36.5,29.96,WSW,256,4.0,17.0,21,0.00,,,0.00,0.0,meteohub,2013-10-14 01:12:00,
2013-10-13 18:17:00,79.5,36.1,29.96,WSW,257,4.0,12.0,21,0.00,,,0.00,0.0,meteohub,2013-10-14 01:17:00,
2013-10-13 18:23:00,79.3,37.2,29.96,West,259,5.0,12.0,22,0.00,,,0.00,0.0,meteohub,2013-10-14 01:23:00,
2013-10-13 18:28:00,79.2,37.0,29.96,WSW,240,2.0,14.0,22,0.00,,,0.00,0.0,meteohub,2013-10-14 01:28:00,
2013-10-13 18:33:00,79.0,36.9,29.96,West,266,4.0,14.0,22,0.00,,,0.00,0.0,meteohub,2013-10-14 01:33:00,
2013-10-13 18:38:00,78.6,36.7,29.96,West,271,6.0,14.0,22,0.00,,,0.00,0.0,meteohub,2013-10-14 01:38:00,
2013-10-13 18:43:00,78.4,37.6,29.96,WSW,252,2.0,9.0,23,0.00,,,0.00,0.0,meteohub,2013-10-14 01:43:00,
2013-10-13 18:48:00,78.1,37.2,29.96,West,269,2.0,9.0,23,0.00,,,0.00,0.0,meteohub,2013-10-14 01:48:00,
2013-10-13 18:53:00,77.5,36.9,29.96,West,268,2.0,9.0,23,0.00,,,0.00,0.0,meteohub,2013-10-14 01:53:00,
2013-10-13 18:58:00,77.0,37.4,29.96,West,263,3.0,8.0,24,0.00,,,0.00,0.0,meteohub,2013-10-14 01:58:00,
2013-10-13 19:03:00,76.6,37.2,29.96,NW,305,4.0,6.0,24,0.00,,,0.00,0.0,meteohub,2013-10-14 02:03:00,
2013-10-13 19:08:00,76.5,37.0,29.97,West,279,1.0,6.0,24,0.00,,,0.00,0.0,meteohub,2013-10-14 02:08:00,
2013-10-13 19:13:00,75.9,37.6,29.97,WNW,294,3.0,4.0,25,0.00,,,0.00,0.0,meteohub,2013-10-14 02:13:00,
2013-10-13 19:18:00,75.7,37.4,29.97,West,268,1.0,4.0,25,0.00,,,0.00,0.0,meteohub,2013-10-14 02:18:00,
2013-10-13 19:23:00,75.6,38.3,29.97,WSW,252,2.0,6.0,26,0.00,,,0.00,0.0,meteohub,2013-10-14 02:23:00,
2013-10-13 19:28:00,75.4,38.1,29.97,West,265,4.0,6.0,26,0.00,,,0.00,0.0,meteohub,2013-10-14 02:28:00,
2013-10-13 19:33:00,75.4,39.0,29.98,West,259,2.0,6.0,27,0.00,,,0.00,0.0,meteohub,2013-10-14 02:33:00,
2013-10-13 19:38:00,75.2,38.8,29.98,West,263,3.0,5.0,27,0.00,,,0.00,0.0,meteohub,2013-10-14 02:38:00,
2013-10-13 19:43:00,75.2,38.8,29.98,West,264,2.0,5.0,27,0.00,,,0.00,0.0,meteohub,2013-10-14 02:43:00,
2013-10-13 19:48:00,75.0,38.8,29.99,WNW,302,2.0,7.0,27,0.00,,,0.00,0.0,meteohub,2013-10-14 02:48:00,
2013-10-13 19:53:00,74.8,38.7,29.99,West,269,1.0,7.0,27,0.00,,,0.00,0.0,meteohub,2013-10-14 02:53:00,
2013-10-13 19:58:00,74.8,39.6,29.99,West,263,4.0,7.0,28,0.00,,,0.00,0.0,meteohub,2013-10-14 02:58:00,
2013-10-13 20:03:00,74.8,39.6,29.99,West,274,1.0,6.0,28,0.00,,,0.00,0.0,meteohub,2013-10-14 03:03:00,
2013-10-13 20:08:00,74.8,38.7,29.99,West,264,2.0,6.0,27,0.00,,,0.00,0.0,meteohub,2013-10-14 03:08:00,
2013-10-13 20:13:00,74.8,39.6,29.99,WNW,290,1.0,7.0,28,0.00,,,0.00,0.0,meteohub,2013-10-14 03:13:00,
2013-10-13 20:18:00,74.7,39.4,29.99,WSW,253,4.0,7.0,28,0.00,,,0.00,0.0,meteohub,2013-10-14 03:18:00,
2013-10-13 20:23:00,74.5,39.2,29.99,West,259,4.0,6.0,28,0.00,,,0.00,0.0,meteohub,2013-10-14 03:23:00,
2013-10-13 20:28:00,74.3,39.0,29.99,West,259,1.0,5.0,28,0.00,,,0.00,0.0,meteohub,2013-10-14 03:28:00,
2013-10-13 20:33:00,73.9,38.8,29.99,West,260,1.0,5.0,28,0.00,,,0.00,0.0,meteohub,2013-10-14 03:33:00,
2013-10-13 20:38:00,73.8,38.7,29.99,West,261,3.0,5.0,28,0.00,,,0.00,0.0,meteohub,2013-10-14 03:38:00,
2013-10-13 20:43:00,73.6,38.5,29.99,WSW,252,1.0,5.0,28,0.00,,,0.00,0.0,meteohub,2013-10-14 03:43:00,
2013-10-13 20:48:00,73.0,37.9,29.99,WSW,250,2.0,5.0,28,0.00,,,0.00,0.0,meteohub,2013-10-14 03:48:00,
2013-10-13 20:53:00,72.9,37.8,30.00,SW,229,2.0,5.0,28,0.00,,,0.00,0.0,meteohub,2013-10-14 03:53:00,
2013-10-13 20:58:00,72.5,37.6,30.00,West,270,1.0,5.0,28,0.00,,,0.00,0.0,meteohub,2013-10-14 03:58:00,
2013-10-13 21:01:00,72.7,38.7,30.00,SW,227,3.0,5.0,29,0.00,,,0.00,0.0,meteohub,2013-10-14 04:01:00,
2013-10-13 21:02:00,72.7,38.7,30.00,WSW,255,6.0,6.0,29,0.00,,,0.00,0.0,meteohub,2013-10-14 04:02:00,
2013-10-13 21:07:00,73.0,37.9,30.00,West,265,3.0,7.0,28,0.00,,,0.00,0.0,meteohub,2013-10-14 04:07:00,
2013-10-13 21:12:00,73.4,39.2,30.00,West,265,3.0,7.0,29,0.00,,,0.00,0.0,meteohub,2013-10-14 04:12:00,
2013-10-13 21:17:00,73.6,39.4,30.00,West,269,2.0,7.0,29,0.00,,,0.00,0.0,meteohub,2013-10-14 04:17:00,
2013-10-13 21:22:00,73.4,39.2,30.00,WSW,254,4.0,7.0,29,0.00,,,0.00,0.0,meteohub,2013-10-14 04:22:00,
2013-10-13 21:27:00,73.2,39.0,30.01,West,260,1.0,7.0,29,0.00,,,0.00,0.0,meteohub,2013-10-14 04:27:00,
2013-10-13 21:32:00,72.9,38.7,30.01,SW,230,1.0,5.0,29,0.00,,,0.00,0.0,meteohub,2013-10-14 04:32:00,
2013-10-13 21:37:00,72.5,38.5,30.01,West,281,2.0,6.0,29,0.00,,,0.00,0.0,meteohub,2013-10-14 04:37:00,
2013-10-13 21:42:00,72.1,38.1,30.01,WSW,256,4.0,6.0,29,0.00,,,0.00,0.0,meteohub,2013-10-14 04:42:00,
2013-10-13 21:47:00,72.0,37.9,30.01,West,274,1.0,7.0,29,0.00,,,0.00,0.0,meteohub,2013-10-14 04:47:00,
2013-10-13 21:52:00,71.4,38.3,30.02,West,267,2.0,7.0,30,0.00,,,0.00,0.0,meteohub,2013-10-14 04:52:00,
2013-10-13 21:57:00,71.2,38.3,30.02,NW,317,4.0,7.0,30,0.00,,,0.00,0.0,meteohub,2013-10-14 04:57:00,
2013-10-13 22:02:00,71.1,38.1,30.02,WNW,292,2.0,6.0,30,0.00,,,0.00,0.0,meteohub,2013-10-14 05:02:00,
2013-10-13 22:07:00,70.7,38.7,30.02,WNW,290,3.0,5.0,31,0.00,,,0.00,0.0,meteohub,2013-10-14 05:07:00,
2013-10-13 22:12:00,70.3,38.3,30.02,WNW,295,2.0,5.0,31,0.00,,,0.00,0.0,meteohub,2013-10-14 05:12:00,
2013-10-13 22:17:00,70.3,38.3,30.02,NW,309,1.0,4.0,31,0.00,,,0.00,0.0,meteohub,2013-10-14 05:17:00,
2013-10-13 22:22:00,70.3,38.3,30.02,West,263,1.0,7.0,31,0.00,,,0.00,0.0,meteohub,2013-10-14 05:22:00,
2013-10-13 22:27:00,70.3,39.0,30.03,West,259,5.0,7.0,32,0.00,,,0.00,0.0,meteohub,2013-10-14 05:27:00,
2013-10-13 22:32:00,70.2,38.8,30.03,West,265,2.0,7.0,32,0.00,,,0.00,0.0,meteohub,2013-10-14 05:32:00,
2013-10-13 22:37:00,70.0,38.8,30.03,WNW,286,1.0,5.0,32,0.00,,,0.00,0.0,meteohub,2013-10-14 05:37:00,
2013-10-13 22:42:00,69.6,39.2,30.03,WNW,286,1.0,5.0,33,0.00,,,0.00,0.0,meteohub,2013-10-14 05:42:00,
2013-10-13 22:47:00,69.4,39.0,30.03,WNW,301,0.0,4.0,33,0.00,,,0.00,0.0,meteohub,2013-10-14 05:47:00,
2013-10-13 22:52:00,69.4,39.9,30.03,West,272,3.0,3.0,34,0.00,,,0.00,0.0,meteohub,2013-10-14 05:52:00,
2013-10-13 22:57:00,70.0,40.3,30.03,West,265,3.0,5.0,34,0.00,,,0.00,0.0,meteohub,2013-10-14 05:57:00,
2013-10-13 23:02:00,70.2,40.5,30.03,NW,316,2.0,5.0,34,0.00,,,0.00,0.0,meteohub,2013-10-14 06:02:00,
2013-10-13 23:07:00,70.3,40.6,30.04,WSW,242,2.0,6.0,34,0.00,,,0.00,0.0,meteohub,2013-10-14 06:07:00,
2013-10-13 23:12:00,70.5,40.8,30.04,West,265,5.0,6.0,34,0.00,,,0.00,0.0,meteohub,2013-10-14 06:12:00,
2013-10-13 23:17:00,70.7,41.0,30.04,SW,232,1.0,8.0,34,0.00,,,0.00,0.0,meteohub,2013-10-14 06:17:00,
2013-10-13 23:22:00,70.5,41.5,30.04,West,277,0.0,8.0,35,0.00,,,0.00,0.0,meteohub,2013-10-14 06:22:00,
2013-10-13 23:27:00,70.5,41.5,30.04,West,262,1.0,8.0,35,0.00,,,0.00,0.0,meteohub,2013-10-14 06:27:00,
2013-10-13 23:32:00,70.3,41.4,30.04,WSW,250,2.0,8.0,35,0.00,,,0.00,0.0,meteohub,2013-10-14 06:32:00,
2013-10-13 23:37:00,70.2,41.9,30.04,NW,311,3.0,8.0,36,0.00,,,0.00,0.0,meteohub,2013-10-14 06:37:00,
2013-10-13 23:43:00,70.0,41.7,30.04,West,260,2.0,8.0,36,0.00,,,0.00,0.0,meteohub,2013-10-14 06:43:00,
2013-10-13 23:48:00,69.6,40.8,30.04,SW,225,1.0,5.0,35,0.00,,,0.00,0.0,meteohub,2013-10-14 06:48:00,
2013-10-13 23:53:00,69.1,41.0,30.04,SW,225,1.0,5.0,36,0.00,,,0.00,0.0,meteohub,2013-10-14 06:53:00,
2013-10-13 23:58:00,68.5,40.5,30.04,SW,225,1.0,5.0,36,0.00,,,0.00,0.0,meteohub,2013-10-14 06:58:00,